TimeCST,TemperatureF,Dew PointF,Humidity,Sea Level PressureIn,VisibilityMPH,Wind Direction,Wind SpeedMPH,Gust SpeedMPH,PrecipitationIn,Events,Conditions,WindDirDegrees,DateUTC
12:54 AM,36.0,24.1,62,30.22,10.0,South,4.6,-,N/A,,Clear,180,2012-02-17 06:54:00
1:54 AM,33.1,25.0,72,30.22,10.0,South,5.8,-,N/A,,Mostly Cloudy,180,2012-02-17 07:54:00
2:54 AM,35.1,25.0,67,30.20,10.0,South,4.6,-,N/A,,Clear,170,2012-02-17 08:54:00
3:54 AM,32.0,25.0,75,30.19,10.0,SSE,5.8,-,N/A,,Partly Cloudy,160,2012-02-17 09:54:00
4:54 AM,33.1,25.0,72,30.19,10.0,SE,4.6,-,N/A,,Clear,140,2012-02-17 10:54:00
5:54 AM,32.0,25.0,75,30.19,10.0,SE,4.6,-,N/A,,Mostly Cloudy,140,2012-02-17 11:54:00
6:54 AM,30.2,24.8,80,30.17,10.0,SSE,9.2,-,N/A,,Clear,150,2012-02-17 12:54:00
7:54 AM,33.1,27.0,78,30.20,10.0,South,6.9,-,N/A,,Clear,170,2012-02-17 13:54:00
8:54 AM,37.0,30.0,76,30.21,10.0,South,6.9,-,N/A,,Clear,180,2012-02-17 14:54:00
9:54 AM,44.1,33.1,65,30.21,10.0,South,10.4,-,N/A,,Clear,180,2012-02-17 15:54:00
10:54 AM,48.9,34.0,56,30.19,10.0,SSW,13.8,-,N/A,,Clear,200,2012-02-17 16:54:00
11:54 AM,51.1,33.1,50,30.17,10.0,SSW,13.8,-,N/A,,Clear,200,2012-02-17 17:54:00
12:54 PM,53.1,33.1,47,30.14,10.0,SSW,13.8,-,N/A,,Clear,200,2012-02-17 18:54:00
1:54 PM,55.9,33.1,42,30.10,10.0,South,10.4,-,N/A,,Clear,190,2012-02-17 19:54:00
2:54 PM,55.9,30.9,39,30.08,10.0,SSW,11.5,-,N/A,,Clear,210,2012-02-17 20:54:00
3:54 PM,55.9,32.0,40,30.08,10.0,SW,8.1,-,N/A,,Clear,230,2012-02-17 21:54:00
4:54 PM,54.0,32.0,43,30.08,10.0,SW,6.9,-,N/A,,Clear,230,2012-02-17 22:54:00
5:54 PM,54.0,32.0,43,30.08,10.0,Calm,Calm,-,N/A,,Clear,0,2012-02-17 23:54:00
6:54 PM,52.0,28.9,41,30.09,10.0,WNW,3.5,-,N/A,,Clear,300,2012-02-18 00:54:00
7:54 PM,48.0,28.9,48,30.09,10.0,NW,3.5,-,N/A,,Clear,320,2012-02-18 01:54:00
8:54 PM,48.9,28.0,44,30.09,10.0,Calm,Calm,-,N/A,,Clear,0,2012-02-18 02:54:00
9:54 PM,43.0,28.9,58,30.10,10.0,Calm,Calm,-,N/A,,Scattered Clouds,0,2012-02-18 03:54:00
10:54 PM,43.0,33.1,68,30.11,10.0,NNW,6.9,-,N/A,,Overcast,330,2012-02-18 04:54:00
11:54 PM,43.0,30.9,62,30.13,10.0,NNE,13.8,-,N/A,,Overcast,20,2012-02-18 05:54:00